星链-30526 (STARLINK-30526 )

导读

STARLINK-30526是美国SpaceX公司于2023年10月5日发射的星链星座卫星,属于星链第二代组网卫星,运行在低地球轨道。它搭载相控阵通信天线与氪离子推进系统,支持全球低延迟宽带互联网接入,可为偏远地区提供高速网络服务。作为星链大规模星座部署的一员,它具备自主轨道机动和避碰能力,寿命结束后会主动离轨,再入大气层完全烧毁,减少空间碎片影响,支撑星链实现全球覆盖的组网目标。

Basic Information
目录编号:
58006
目录名称:
STARLINK-30526
国际标识:
2023-153R
轨道中心:
EARTH
卫星名称:
星链-30526
卫星全名:
星链-30526 (STARLINK-30526 )
卫星状态:
在轨 (已飞行989 天)
发射日期:
2023-10-05 UTC
国别 :
美国 (US)
星等 :
--
Orbit Information
数据来源 国际轨道数据 AOE轨道数据
星历时间 2026-06-19T20:46:23+0800
23小时前
查看轨道信息
2026-06-17T07:00:00+0800
3天前
查看轨道信息
半长轴 6850.704km 6850.662km
偏心率 0.0002708 0.0003001
轨道倾角 43.003° 43.003°
近地点辐角 89.380° 66.056°
升交点赤经 185.718° 200.334°
平近点角 270.736° 130.329°
近地点 470.711km 470.469km
远地点 474.423km 474.581km
周期 94.051分钟 94.050分钟
每日圈数 15.310876 15.311014
Detailed Information
固有亮度:
5
最大亮度:
0.3
卫星平台:
Starlink v2.0 mini
覆盖范围:
全球
运营商:
太空探索技术公司
运营商所在国:
美国
制造商(研发单位):
太空探索技术公司
制造商所在国:
美国
使用方式:
暂无
Satellite Introduction
星链(Starlink)计划是由太空探索技术公司(SpaceX)提出的一个巨型低轨卫星互联网星座项目,计划在2019年至2024年间在太空搭建由约1.2万颗卫星组成的“星链”网络,其中1584颗将部署在地球上空550千米处的近地轨道,并从2020年开始工作。该卫星仍在工作。
2D Orbit Map
3D Orbit Map
Orbit Altitude Analysis Chart
Orbit Inclination Analysis Chart
Orbit Comprehensive Analysis Chart
View Comprehensive Chart